Time,TemperatureF,DewpointF,PressureIn,WindDirection,WindDirectionDegrees,WindSpeedMPH,WindSpeedGustMPH,Humidity,HourlyPrecipIn,Conditions,Clouds,dailyrainin,SoftwareType,DateUTC
2013-04-11 00:04:00,10.6,0.6,28.76,SSE,161,1.5,4.9,60,0.00,,,0.00,WSDL version 420,2013-04-11 06:04:00,
2013-04-11 00:09:00,10.3,0.3,28.76,SSW,194,3.0,6.7,60,0.00,,,0.00,WSDL version 420,2013-04-11 06:09:00,
2013-04-11 00:14:00,10.6,0.6,28.76,South,180,3.2,6.7,60,0.00,,,0.00,WSDL version 420,2013-04-11 06:14:00,
2013-04-11 00:19:00,11.3,1.3,28.76,SSW,203,5.0,6.3,60,0.00,,,0.00,WSDL version 420,2013-04-11 06:19:00,
2013-04-11 00:24:00,11.7,1.6,28.76,SSE,161,3.4,6.5,60,-99.99,,,-99.99,WSDL version 420,2013-04-11 06:24:00,
2013-04-11 00:30:00,11.6,1.5,28.76,SSW,199,3.1,4.0,60,-99.99,,,-99.99,WSDL version 420,2013-04-11 06:30:00,
2013-04-11 00:35:00,11.8,1.7,28.73,SSE,164,4.6,5.6,60,0.00,,,0.00,WSDL version 420,2013-04-11 06:35:00,
2013-04-11 00:40:00,-999.0,-99.9,28.73,SSE,165,5.1,8.5,-999,-99.99,,,-99.99,WSDL version 420,2013-04-11 06:40:00,
2013-04-11 00:45:00,12.8,2.7,28.73,South,177,3.1,8.5,60,0.00,,,0.00,WSDL version 420,2013-04-11 06:45:00,
2013-04-11 00:50:00,13.2,3.1,28.73,SSW,203,3.7,7.8,60,0.00,,,0.00,WSDL version 420,2013-04-11 06:50:00,
2013-04-11 00:55:00,13.1,3.0,28.73,South,191,2.7,6.3,60,0.00,,,0.00,WSDL version 420,2013-04-11 06:55:00,
2013-04-11 01:00:00,12.7,2.7,28.73,SSW,194,3.7,4.9,60,0.00,,,0.00,WSDL version 420,2013-04-11 07:00:00,
2013-04-11 01:05:00,12.7,2.6,28.70,SSE,165,4.5,6.3,60,-99.99,,,-99.99,WSDL version 420,2013-04-11 07:05:00,
2013-04-11 01:11:00,12.7,2.7,28.70,SSE,160,4.3,6.3,60,0.00,,,0.00,WSDL version 420,2013-04-11 07:11:00,
2013-04-11 01:16:00,13.0,2.9,28.70,South,169,4.1,6.3,60,0.00,,,0.00,WSDL version 420,2013-04-11 07:16:00,
2013-04-11 01:22:00,13.4,3.2,28.73,South,180,3.6,5.8,60,0.00,,,0.00,WSDL version 420,2013-04-11 07:22:00,
2013-04-11 01:27:00,13.5,3.3,28.73,South,170,3.5,4.9,60,0.00,,,0.00,WSDL version 420,2013-04-11 07:27:00,
2013-04-11 01:32:00,13.5,3.4,28.73,SSW,196,3.3,4.5,60,0.00,,,0.00,WSDL version 420,2013-04-11 07:32:00,
2013-04-11 01:37:00,13.6,3.5,28.70,South,186,5.0,10.7,60,0.00,,,0.00,WSDL version 420,2013-04-11 07:37:00,
2013-04-11 01:42:00,14.2,9.0,28.70,SSW,193,3.5,10.7,77,0.00,,,0.00,WSDL version 420,2013-04-11 07:42:00,
2013-04-11 01:48:00,14.2,8.6,28.70,SSE,158,1.5,6.3,75,0.00,,,0.00,WSDL version 420,2013-04-11 07:48:00,
2013-04-11 01:53:00,14.0,8.2,28.70,SSW,203,0.4,2.7,75,0.00,,,0.00,WSDL version 420,2013-04-11 07:53:00,
2013-04-11 01:58:00,13.6,7.9,28.70,SSE,166,0.7,3.1,75,0.00,,,0.00,WSDL version 420,2013-04-11 07:58:00,
2013-04-11 02:04:00,13.9,8.0,28.70,South,180,4.4,5.8,74,0.00,,,0.00,WSDL version 420,2013-04-11 08:04:00,
2013-04-11 02:09:00,14.7,8.9,28.70,SSE,163,5.1,6.9,75,-99.99,,,-99.99,WSDL version 420,2013-04-11 08:09:00,
2013-04-11 02:14:00,15.1,9.3,28.70,South,180,2.6,6.9,75,0.00,,,0.00,WSDL version 420,2013-04-11 08:14:00,
2013-04-11 02:19:00,15.4,9.3,28.70,SSE,165,1.4,5.6,74,0.00,,,0.00,WSDL version 420,2013-04-11 08:19:00,
2013-04-11 02:24:00,15.4,9.3,28.70,SSE,165,3.5,5.4,73,0.00,,,0.00,WSDL version 420,2013-04-11 08:24:00,
2013-04-11 02:30:00,15.7,9.3,28.70,SSE,167,4.2,6.5,72,-99.99,,,-99.99,WSDL version 420,2013-04-11 08:30:00,
2013-04-11 02:35:00,15.9,9.1,28.67,SSW,200,4.1,6.5,71,0.00,,,0.00,WSDL version 420,2013-04-11 08:35:00,
2013-04-11 02:40:00,16.1,8.9,28.67,South,174,3.6,5.8,70,0.00,,,0.00,WSDL version 420,2013-04-11 08:40:00,
2013-04-11 02:45:00,16.1,8.5,28.67,SSE,164,6.3,8.1,67,0.00,,,0.00,WSDL version 420,2013-04-11 08:45:00,
2013-04-11 02:50:00,16.2,8.1,28.67,SSE,158,6.4,9.6,67,0.00,,,0.00,WSDL version 420,2013-04-11 08:50:00,
2013-04-11 02:55:00,16.4,8.2,28.67,South,169,3.5,9.6,66,0.00,,,0.00,WSDL version 420,2013-04-11 08:55:00,
2013-04-11 03:00:00,16.5,8.2,28.67,South,184,3.4,6.5,66,0.00,,,0.00,WSDL version 420,2013-04-11 09:00:00,
2013-04-11 03:05:00,16.5,8.2,28.67,SSE,158,3.8,5.4,66,0.00,,,0.00,WSDL version 420,2013-04-11 09:05:00,
2013-04-11 03:10:00,16.5,7.9,28.67,SSE,154,1.6,4.5,65,0.00,,,0.00,WSDL version 420,2013-04-11 09:10:00,